Temperature
13 13 12 12 11 11 10 10 10 10 10 10 9 9 9 9 9 9 9 9 9 9 9 9 9 9 9 10 10 10 11 11 11 12 12 12 12 12 13 13 14 14 15
13 13 12 11 11 11 10 10 10 10 10 9 9 9 9 9 9 9 9 9 9 9 9 9 9 9 9 9 9 10 10 10 11 11 12 12 12 12 12 13 13 14 14
13 12 12 11 11 11 10 10 10 10 9 9 9 9 9 9 9 9 9 9 9 9 9 9 9 9 9 9 9 9 10 10 10 11 11 11 11 12 12 13 13 13 14
13 12 12 11 11 10 10 10 10 9 9 9 9 9 9 9 9 9 9 9 9 9 8 8 8 8 8 8 9 9 9 10 10 10 11 11 11 12 12 12 13 13 13
13 12 12 11 11 10 10 10 10 9 9 9 9 9 9 9 9 9 9 9 8 8 8 8 8 8 8 8 9 9 9 9 10 11 11 11 12 12 12 12 12 13 13
13 12 12 11 11 10 10 10 9 9 9 9 9 9 9 9 9 9 8 8 8 8 8 8 8 8 8 8 8 9 9 8 9 10 11 11 11 11 11 12 12 12 13
13 12 12 11 11 10 10 10 9 9 9 9 9 9 9 9 9 9 8 8 8 8 8 8 8 9 8 8 8 8 8 8 8 8 9 10 11 11 11 11 11 12 12
13 12 12 11 11 10 10 10 9 9 9 9 9 9 9 9 9 8 8 8 8 8 8 8 8 8 8 8 8 8 8 8 8 8 8 9 9 9 10 10 11 11 12
13 12 12 11 11 10 10 10 9 9 9 9 9 9 9 9 8 8 8 8 8 8 8 8 8 8 8 7 7 7 8 8 8 8 8 8 9 9 9 10 10 11 11
13 12 11 11 11 10 10 10 10 9 9 9 9 9 9 9 8 8 8 7 7 8 8 8 8 7 7 7 7 7 7 8 8 8 8 8 9 9 9 9 10 10 11
13 12 12 11 11 10 10 10 10 9 9 9 9 9 9 8 8 8 8 7 7 7 8 8 8 7 7 7 7 7 7 7 7 8 8 8 8 9 9 9 9 10 11
13 12 12 11 11 11 10 10 9 9 9 9 9 9 9 8 8 8 8 7 7 7 7 7 7 7 7 7 7 7 7 7 7 7 8 8 9 9 9 10 10 10 10
13 12 12 11 11 11 10 10 10 9 9 10 10 9 9 9 8 8 8 8 7 7 7 7 7 7 7 7 7 7 7 6 6 7 8 8 9 9 9 9 9 10 10
13 12 12 11 11 11 10 10 10 10 10 10 9 9 9 9 8 8 7 7 7 7 7 7 7 7 7 7 6 6 6 6 7 7 8 8 8 9 9 9 9 10 10
13 12 12 11 11 11 11 10 10 10 9 9 9 9 8 8 8 8 7 7 7 7 7 7 7 7 7 7 7 7 7 7 6 7 7 8 8 8 9 9 9 10 9
13 12 12 12 12 11 11 11 11 10 10 9 9 9 8 8 8 8 8 7 7 7 7 6 7 7 7 7 7 7 7 7 7 7 7 7 8 8 8 9 9 9 9
13 12 12 12 12 11 11 11 11 10 10 10 9 9 9 8 8 8 8 8 7 7 7 7 7 7 7 7 7 7 7 7 7 7 7 7 8 8 8 9 9 9 9
12 12 12 11 11 11 11 11 10 10 10 10 10 9 9 9 8 8 8 8 7 7 7 7 7 7 7 7 7 7 7 7 7 7 7 7 8 8 8 8 9 9 9
12 12 11 11 11 11 11 10 10 10 10 10 10 9 9 9 8 8 8 7 7 8 7 7 7 7 7 7 7 7 7 7 7 7 7 8 8 8 8 8 9 9 9
12 12 11 11 11 11 11 11 11 10 10 10 10 9 9 9 9 8 8 8 7 8 8 8 7 7 7 7 7 7 7 7 7 7 7 8 8 8 8 8 9 9 9
12 12 11 11 11 11 11 11 10 10 10 10 9 9 9 9 9 8 8 8 8 8 8 7 7 7 7 7 8 8 7 8 7 8 8 8 8 8 8 9 9 9 9
11 11 11 11 11 11 10 10 10 10 10 10 10 9 9 9 8 8 8 8 8 8 8 7 7 8 8 8 8 8 8 8 8 8 8 8 8 8 8 9 9 9 9
11 11 11 11 10 10 10 10 10 10 10 10 10 9 9 9 8 8 8 8 8 7 7 7 7 8 8 8 8 8 8 8 8 8 8 8 8 8 8 9 9 9 9
10 10 10 11 10 10 10 10 10 10 10 9 9 9 9 8 8 8 8 7 7 7 7 7 7 7 8 8 8 8 8 8 8 8 8 8 8 8 9 9 9 9 9
10 10 10 10 10 10 10 9 9 9 9 9 9 8 8 8 8 8 7 7 7 7 7 7 7 7 7 7 7 7 8 8 8 8 8 8 8 8 8 9 9 9 9
9 9 10 10 10 9 9 9 9 9 8 8 8 8 8 8 8 8 7 7 7 7 7 7 7 7 7 7 7 7 8 8 8 8 8 8 8 8 8 9 9 9 9
Wind_Speed
5 5 6 7 7 8 9 9 9 9 10 10 11 11 11 11 11 11 12 12 12 12 12 12 13 13 11 11 11 11 11 11 13 12 10 8 8 9 8 7 8 8 9
5 6 7 7 8 9 10 10 10 10 10 11 11 11 12 12 12 12 13 13 13 13 13 13 13 12 13 12 12 12 12 11 12 14 12 10 9 8 8 8 6 6 6
6 7 7 8 9 9 10 10 10 10 11 11 11 12 12 13 13 13 13 13 13 14 13 14 14 13 14 13 13 13 12 12 12 13 13 10 9 8 7 7 7 5 6
6 7 8 9 9 10 10 10 10 11 11 12 12 12 13 13 13 13 13 13 14 14 14 14 14 14 14 14 13 13 13 13 12 13 12 11 9 8 7 7 6 5 5
7 8 9 9 9 10 10 10 11 11 12 12 12 13 13 12 12 12 12 13 14 14 14 14 15 14 13 12 12 13 12 12 12 12 12 11 10 8 8 6 6 5 4
7 8 9 9 10 10 10 11 11 11 12 12 12 13 13 12 7 6 11 14 15 15 15 14 14 14 15 16 17 17 16 15 14 13 12 12 11 10 8 7 7 6 4
7 8 9 9 10 10 11 11 11 12 12 12 13 13 13 13 9 10 11 13 15 15 15 14 13 13 12 14 16 20 21 21 20 17 16 14 12 10 10 10 9 7 5
8 8 9 9 10 10 11 11 12 11 11 12 12 13 13 13 9 10 11 14 15 16 16 15 15 15 14 13 14 15 16 17 18 18 17 17 15 12 10 11 9 7 5
8 8 9 9 10 11 11 11 11 11 12 12 13 13 13 13 10 10 10 12 13 15 15 14 14 14 11 9 14 16 16 15 15 15 15 14 12 10 9 9 9 8 6
8 8 8 9 10 11 12 12 11 11 12 13 13 13 13 14 9 8 9 11 12 12 12 12 12 13 10 7 13 15 16 15 14 14 15 16 16 16 14 14 12 10 7
7 8 9 9 10 11 12 11 11 11 12 13 13 13 13 12 11 9 10 9 11 12 11 10 9 8 11 11 13 14 14 13 13 13 13 14 14 13 14 15 14 12 10
7 9 9 10 10 10 11 11 11 11 12 13 12 12 11 9 9 7 8 11 12 12 11 11 8 4 8 11 12 12 11 11 12 12 12 12 12 12 13 14 14 14 11
8 9 10 10 10 10 11 11 11 10 10 11 11 11 10 9 8 8 11 12 12 11 11 10 10 9 9 11 15 14 12 12 12 13 13 12 12 12 11 10 12 11 11
9 10 10 10 11 10 9 10 10 10 10 11 11 11 11 10 9 7 6 6 9 11 11 10 13 14 13 12 9 11 12 12 12 12 12 12 11 11 11 11 11 10 9
10 10 10 10 10 9 10 9 11 10 9 10 11 11 11 11 8 7 8 9 9 8 9 9 9 8 9 9 9 10 10 11 12 12 12 11 11 11 11 11 11 11 11
10 10 9 9 8 9 10 10 10 12 11 14 15 14 12 12 12 12 11 12 13 11 9 10 10 9 9 9 9 9 9 11 11 11 11 11 11 11 11 11 11 12 11
11 10 9 9 9 10 10 10 11 9 13 17 17 16 16 15 14 13 13 13 13 10 9 10 10 10 9 9 8 9 9 10 10 10 11 11 11 11 11 11 12 12 11
12 11 11 10 10 10 10 10 10 11 11 10 9 15 15 15 14 13 11 9 10 9 9 10 10 9 8 8 8 8 8 8 9 10 10 10 11 11 11 11 12 13 12
11 11 10 10 10 10 10 10 10 11 10 11 10 6 11 13 14 13 9 8 10 9 8 8 8 8 8 7 7 7 8 8 9 9 9 10 10 10 11 11 11 13 13
10 12 11 10 10 10 10 10 10 9 9 10 9 9 7 7 8 6 7 8 9 9 8 8 8 9 8 8 7 7 8 8 9 9 9 9 9 10 11 12 11 12 12
11 10 12 11 11 10 9 10 9 9 9 9 9 6 6 9 9 8 7 7 8 8 8 8 8 8 8 8 7 8 9 8 8 8 9 9 10 10 10 10 11 11 11
11 11 10 10 9 9 9 9 9 9 9 10 8 6 5 7 7 7 7 7 8 8 8 8 8 8 7 7 7 7 7 7 7 8 9 9 9 10 10 10 11 11 11
11 11 10 10 9 8 8 10 9 9 8 8 8 7 7 6 7 7 8 8 7 7 7 7 7 7 7 6 6 5 6 6 6 7 7 8 8 8 9 10 12 12 13
10 10 11 10 9 9 8 8 8 8 7 7 7 7 7 6 7 7 7 7 7 7 7 6 6 7 8 6 5 5 4 3 4 6 8 8 8 7 8 9 11 13 12
10 10 10 9 9 8 7 7 7 7 6 6 6 6 6 6 6 6 6 6 7 7 7 7 6 6 7 7 6 4 3 4 3 4 5 7 8 9 8 10 10 11 12
10 9 8 7 7 6 6 6 6 6 6 5 5 6 6 5 5 5 5 5 6 7 7 6 7 7 7 5 6 6 4 3 3 5 6 6 8 8 9 9 11 11 13
Wind_Direction
258 263 273 276 281 283 283 284 286 287 289 285 285 284 281 277 272 267 267 271 266 266 263 260 257 262 266 266 262 259 259 260 267 272 270 273 276 280 282 275 263 251 234
264 266 271 277 280 283 286 288 287 285 285 285 284 282 280 277 274 269 267 268 267 266 265 264 261 258 254 258 263 262 261 262 265 271 274 271 268 270 275 270 263 253 244
268 268 274 279 284 286 289 289 288 286 285 285 284 282 280 280 276 271 269 269 268 267 266 264 262 260 258 256 257 259 260 257 256 263 267 267 265 262 266 260 255 249 244
273 275 279 284 288 289 289 289 287 287 286 286 285 284 282 280 277 274 271 270 269 268 266 263 261 258 256 256 256 255 258 261 259 259 263 263 256 252 250 252 244 234 233
275 279 283 287 288 286 286 287 288 287 286 288 288 286 283 279 275 278 280 277 274 271 267 263 260 257 261 262 262 260 256 253 255 255 256 257 255 249 246 244 243 230 228
271 280 286 289 288 287 288 289 290 290 290 290 287 287 286 284 302 299 282 282 279 274 270 266 263 252 244 238 247 258 265 262 260 261 259 257 259 257 252 249 242 227 226
271 280 285 288 289 290 292 294 293 293 292 290 288 288 286 284 274 262 260 274 275 272 270 268 265 262 248 248 238 234 243 247 252 259 264 265 264 257 257 250 241 238 236
272 279 285 289 291 292 292 292 293 293 292 290 289 288 287 285 269 258 257 267 270 267 266 265 263 264 260 259 260 252 246 240 236 238 247 256 261 268 262 255 256 245 239
273 281 288 292 293 293 293 295 296 295 293 291 289 289 287 286 268 251 255 278 271 269 267 265 264 264 258 247 258 261 260 254 243 237 244 252 270 280 274 261 245 230 227
277 284 289 290 290 291 293 294 295 294 291 292 292 292 291 289 283 252 248 276 277 277 274 269 256 251 263 242 254 257 257 255 254 242 230 235 243 245 236 241 243 233 227
278 281 283 286 287 285 288 290 291 292 293 292 292 291 288 285 280 248 236 268 280 283 282 278 273 216 228 235 247 257 261 267 261 254 248 240 233 233 231 226 229 229 225
269 273 278 283 286 290 289 288 288 290 290 288 288 290 290 287 280 264 230 245 268 277 278 278 282 237 232 236 241 250 255 258 256 253 247 241 236 231 226 223 221 224 226
264 271 278 282 283 284 285 287 287 284 287 295 298 299 301 302 290 236 234 243 246 258 270 278 282 268 256 246 237 237 240 242 243 245 244 240 237 234 230 223 219 219 218
259 268 273 277 280 282 283 283 287 292 296 300 301 301 301 299 298 306 295 273 246 252 264 261 245 244 247 257 251 227 231 236 236 240 242 241 236 231 228 223 215 206 206
256 263 269 273 277 281 279 278 283 287 292 291 297 300 299 297 318 346 310 297 300 307 307 284 272 262 251 247 246 239 232 228 230 236 240 238 232 227 224 220 214 207 203
252 258 268 274 278 279 283 284 253 247 254 245 250 264 282 280 293 295 286 278 277 280 280 273 271 266 261 256 250 243 235 232 230 229 231 232 229 224 221 217 210 206 203
252 262 269 274 277 277 281 286 293 276 240 238 239 240 248 271 281 279 277 277 269 255 257 265 269 267 263 260 254 249 244 236 232 230 227 226 226 223 219 215 208 204 201
253 256 255 263 269 274 278 281 285 292 298 297 253 225 231 244 256 262 262 270 265 239 251 261 268 271 267 260 256 249 244 240 232 228 225 223 222 221 219 215 209 204 199
256 260 259 263 267 270 275 278 281 285 290 295 301 273 219 231 237 242 238 256 275 277 270 268 270 272 269 261 256 250 243 239 234 227 223 220 219 219 219 216 211 198 197
253 250 252 261 265 268 271 274 279 285 290 293 298 304 298 282 281 268 246 264 277 283 281 277 274 272 269 263 254 248 244 239 235 229 223 218 217 219 220 218 209 200 198
261 250 221 243 256 263 271 275 278 283 287 291 295 306 311 298 298 300 297 289 287 288 285 281 277 271 266 262 257 247 243 239 233 227 221 217 215 217 221 217 208 201 197
260 261 255 252 257 261 270 275 277 279 284 290 293 287 238 275 296 300 300 298 296 292 287 282 281 278 272 268 263 257 249 241 232 227 226 221 217 214 213 210 205 199 194
259 260 260 256 255 252 255 264 271 275 282 289 295 302 301 303 307 309 310 310 306 300 296 291 287 288 286 277 273 263 253 248 239 234 227 223 217 215 211 208 205 197 191
261 258 257 258 257 259 262 267 273 276 283 291 297 303 310 312 313 319 324 323 317 310 307 304 301 301 300 294 283 269 263 266 254 243 234 227 220 217 212 209 207 201 193
266 261 258 258 258 261 267 273 278 282 290 296 299 305 311 314 319 324 329 332 327 321 320 320 318 317 316 312 306 306 13 360 319 292 246 235 228 220 215 211 204 196 189
268 261 260 262 263 268 274 277 281 287 293 299 304 310 314 319 323 325 328 334 330 325 326 327 332 335 332 328 340 347 351 327 304 293 272 247 233 224 214 210 203 197 190
Height
1522 1520 1519 1518 1517 1515 1514 1512 1510 1508 1506 1504 1502 1500 1499 1497 1496 1494 1493 1492 1491 1490 1489 1488 1487 1487 1487 1487 1487 1486 1486 1485 1483 1482 1482 1481 1480 1479 1479 1479 1479 1480 1482
1518 1517 1516 1514 1513 1511 1510 1508 1506 1504 1502 1500 1498 1496 1494 1493 1491 1490 1488 1487 1486 1485 1484 1483 1482 1482 1481 1481 1481 1481 1480 1480 1479 1478 1477 1477 1475 1475 1474 1474 1474 1475 1477
1515 1514 1512 1511 1510 1508 1506 1504 1502 1499 1497 1495 1493 1491 1489 1487 1486 1484 1483 1481 1480 1479 1478 1477 1476 1476 1475 1475 1475 1475 1475 1475 1474 1473 1472 1472 1471 1471 1470 1470 1470 1471 1472
1512 1511 1509 1508 1506 1504 1502 1500 1497 1495 1493 1491 1488 1486 1484 1482 1480 1479 1477 1476 1474 1473 1471 1470 1470 1469 1469 1469 1469 1469 1469 1469 1469 1468 1468 1467 1467 1466 1466 1466 1466 1466 1467
1508 1507 1506 1504 1502 1499 1497 1495 1493 1491 1488 1486 1483 1481 1478 1477 1475 1474 1471 1470 1468 1466 1465 1464 1463 1463 1462 1462 1463 1463 1464 1464 1464 1463 1463 1463 1462 1462 1462 1462 1462 1462 1463
1504 1503 1502 1500 1498 1496 1493 1491 1489 1486 1484 1481 1478 1475 1473 1472 1470 1467 1465 1463 1461 1460 1458 1457 1457 1455 1454 1454 1454 1455 1456 1457 1458 1458 1458 1458 1457 1458 1458 1458 1458 1458 1459
1500 1499 1498 1496 1494 1492 1490 1487 1484 1481 1479 1476 1473 1470 1467 1465 1462 1460 1458 1456 1454 1453 1451 1450 1450 1450 1449 1448 1447 1447 1448 1448 1450 1451 1452 1452 1453 1453 1454 1454 1454 1454 1455
1497 1495 1494 1492 1490 1487 1485 1482 1479 1476 1474 1471 1468 1465 1462 1459 1456 1454 1451 1449 1447 1446 1444 1443 1442 1442 1442 1442 1442 1441 1441 1441 1442 1443 1444 1445 1447 1448 1448 1449 1449 1450 1451
1493 1492 1490 1488 1485 1483 1480 1478 1475 1472 1468 1465 1463 1459 1456 1453 1451 1448 1446 1443 1441 1440 1438 1437 1435 1435 1435 1434 1434 1434 1434 1435 1436 1436 1437 1438 1439 1441 1442 1444 1445 1446 1446
1489 1488 1486 1483 1480 1478 1475 1472 1470 1467 1463 1460 1457 1454 1451 1447 1445 1442 1440 1438 1436 1434 1432 1430 1429 1428 1428 1427 1427 1427 1427 1427 1429 1430 1429 1430 1431 1433 1435 1437 1439 1441 1442
1485 1483 1481 1478 1476 1473 1470 1467 1465 1462 1459 1455 1452 1448 1445 1442 1439 1436 1434 1432 1430 1428 1426 1425 1424 1422 1421 1420 1420 1420 1420 1421 1422 1423 1423 1424 1425 1426 1428 1430 1433 1435 1437
1479 1478 1476 1474 1471 1469 1466 1462 1460 1457 1453 1450 1447 1443 1440 1437 1434 1431 1429 1426 1424 1422 1420 1419 1418 1416 1415 1414 1413 1413 1414 1414 1416 1416 1417 1417 1419 1420 1422 1424 1426 1429 1431
1475 1473 1471 1469 1466 1463 1461 1458 1455 1453 1450 1446 1443 1439 1436 1433 1430 1426 1423 1420 1418 1416 1414 1412 1411 1409 1408 1407 1407 1407 1407 1408 1409 1410 1410 1411 1412 1414 1416 1419 1421 1423 1426
1469 1468 1466 1464 1462 1459 1456 1454 1452 1449 1446 1442 1439 1435 1431 1428 1425 1422 1419 1416 1413 1411 1409 1407 1405 1403 1402 1401 1400 1400 1400 1401 1401 1402 1404 1405 1406 1408 1410 1412 1415 1418 1421
1464 1462 1461 1459 1457 1454 1451 1449 1446 1443 1441 1437 1434 1430 1427 1423 1421 1417 1414 1411 1409 1407 1404 1402 1400 1398 1396 1395 1394 1394 1394 1394 1394 1395 1397 1398 1400 1402 1404 1407 1409 1413 1415
1457 1457 1456 1454 1452 1449 1447 1444 1440 1438 1434 1431 1427 1424 1420 1418 1414 1411 1409 1406 1404 1402 1399 1397 1395 1393 1391 1390 1389 1388 1388 1388 1388 1389 1390 1392 1394 1396 1398 1401 1404 1407 1410
1452 1451 1450 1448 1446 1444 1442 1439 1436 1433 1429 1426 1422 1419 1415 1412 1409 1407 1404 1401 1399 1397 1394 1392 1389 1387 1385 1384 1383 1382 1382 1382 1382 1383 1384 1386 1388 1391 1393 1395 1398 1401 1405
1446 1445 1443 1442 1440 1438 1436 1433 1430 1427 1425 1421 1418 1414 1411 1408 1405 1402 1399 1397 1394 1392 1389 1387 1384 1382 1380 1379 1377 1377 1376 1376 1377 1378 1379 1381 1383 1385 1388 1390 1393 1396 1400
1440 1439 1438 1436 1434 1433 1431 1428 1426 1423 1420 1416 1414 1411 1407 1404 1401 1398 1395 1392 1390 1388 1385 1383 1380 1378 1376 1374 1373 1372 1372 1372 1372 1373 1374 1376 1378 1380 1383 1385 1388 1391 1395
1433 1431 1431 1430 1428 1427 1425 1423 1420 1418 1415 1412 1409 1407 1404 1401 1398 1395 1392 1389 1386 1383 1381 1378 1376 1374 1372 1371 1369 1368 1368 1368 1368 1369 1370 1372 1374 1376 1378 1381 1384 1386 1390
1427 1425 1424 1422 1422 1421 1419 1417 1415 1413 1410 1408 1405 1402 1399 1396 1394 1391 1388 1385 1382 1379 1376 1374 1371 1369 1368 1367 1366 1365 1364 1364 1364 1365 1366 1368 1370 1372 1374 1377 1379 1382 1386
1420 1419 1418 1417 1416 1415 1413 1412 1410 1408 1405 1403 1401 1398 1395 1392 1390 1387 1384 1381 1378 1374 1372 1369 1367 1366 1364 1363 1362 1361 1361 1361 1361 1362 1363 1365 1366 1368 1370 1373 1376 1379 1382
1413 1412 1412 1411 1410 1409 1407 1406 1405 1403 1401 1399 1397 1394 1392 1389 1386 1383 1380 1377 1374 1371 1368 1366 1364 1362 1361 1360 1359 1358 1358 1358 1358 1359 1360 1362 1363 1365 1367 1370 1372 1376 1379
1407 1406 1405 1405 1404 1403 1402 1401 1400 1398 1397 1395 1393 1391 1388 1385 1383 1380 1377 1374 1370 1367 1365 1363 1361 1359 1358 1357 1356 1356 1355 1355 1356 1356 1358 1359 1360 1362 1364 1366 1369 1372 1376
1401 1400 1400 1399 1399 1398 1397 1396 1395 1394 1392 1391 1389 1387 1385 1382 1380 1377 1374 1371 1368 1365 1362 1360 1358 1356 1355 1353 1353 1352 1352 1353 1353 1354 1355 1356 1358 1359 1361 1363 1366 1369 1372
1396 1395 1394 1394 1394 1393 1393 1392 1391 1390 1389 1387 1386 1384 1382 1380 1377 1375 1372 1369 1366 1363 1360 1358 1356 1354 1352 1351 1350 1350 1350 1350 1350 1351 1352 1354 1355 1356 1358 1360 1363 1366 1369